Location: Aufkirchen
(47.9603°N, 11.3653°E)
Time: 12:05:02
(UTC+01:00)

deb Explorer IX - Pass Details

Date: 26 November 2020
Orbit: 536 x 1104 km, 38.8° (Epoch: 19 January)

Event Time Altitude Azimuth Distance (km) Brightness Sun altitude
Rises 16:54:18 0° 207° (SSW) 3,472 ? -4.9°
Reaches altitude 10° 16:58:22 10° 182° (S) 2,392 ? -5.5°
Maximum altitude 17:00:56 13° 155° (SSE) 2,077 ? -5.9°
Drops below altitude 10° 17:03:22 10° 127° (SE) 2,214 ? -6.3°
Enters shadow 17:06:21 - 103° (ESE) 2,867 ? -6.7°
